Location: Eekwerd
(53.3234°N, 6.7984°E)
Time: 20:50:36
(UTC+00:00)

Cosmos 158 Rocket - Pass Details

Date: 15 May 2026
Orbit: 694 x 785 km, 74.0° (Epoch: 10 June)

Event Time Altitude Azimuth Distance (km) Brightness Sun altitude
Exits shadow 23:39:42 30° 167° (SSE) 1,379 4.8 -17.6°
Maximum altitude 23:42:03 52° 108° (ESE) 976 4.4 -17.6°
Drops below altitude 10° 23:47:12 10° 34° (NNE) 2,336 7.4 -17.5°
Sets 23:49:37 0° 29° (NNE) 3,258 8.5 -17.5°
